Location: Pasadena, ca
(34.1243°N, 118.1037°W)
Time: 01:56:20
(UTC-08:00)

Vanguard 1 - All Passes

Search period start: 25 February 2018 00:00
Search period end: 07 March 2018 00:00
Orbit: 650 x 3833 km, 34.2° (Epoch: 24 February)

Date Brightness Start Highest point End Pass type
(mag) Time Alt. Az. Time Alt. Az. Time Alt. Az.
25 Feb - 10:03:11 10° SSW 10:21:27 33° SE 10:34:19 10° E daylight
25 Feb - 12:26:33 10° SW 12:45:51 64° SSE 12:56:29 10° E daylight
25 Feb - 14:54:15 10° W 15:08:52 90° SSE 15:16:23 10° E daylight
25 Feb - 17:21:01 10° W 17:30:15 72° SSW 17:35:36 10° ESE daylight
25 Feb - 19:46:01 10° W 19:49:32 17° SW 19:52:31 10° S visible
26 Feb - 08:07:49 10° SSE 08:17:50 14° SE 08:26:51 10° ESE daylight
26 Feb - 10:22:58 10° SSW 10:42:49 41° SSE 10:56:07 10° E daylight
26 Feb - 12:47:55 10° WSW 13:07:10 73° SSE 13:17:30 10° E daylight
26 Feb - 15:16:07 10° W 15:30:05 89° N 15:37:18 10° E daylight
26 Feb - 17:42:33 10° W 17:51:08 57° SSW 17:56:17 10° SE daylight
27 Feb - 08:24:21 10° S 08:39:13 21° SE 08:51:46 10° E daylight
27 Feb - 10:43:16 10° SW 11:04:12 50° SSE 11:17:35 10° E daylight
27 Feb - 13:09:33 10° WSW 13:28:30 81° SSE 13:38:30 10° E daylight
27 Feb - 15:37:57 10° W 15:51:17 89° S 15:58:13 10° E daylight
27 Feb - 18:04:07 10° W 18:11:53 42° SSW 18:16:47 10° SE visible
28 Feb - 08:42:42 10° S 09:00:30 29° SE 09:14:52 10° E daylight
28 Feb - 11:03:59 10° SW 11:25:34 59° SSE 11:38:51 10° E daylight
28 Feb - 13:31:22 10° WSW 13:49:51 87° S 13:59:29 10° E daylight
28 Feb - 15:59:44 10° W 16:12:26 83° SSW 16:19:06 10° ESE daylight
28 Feb - 18:25:50 10° W 18:32:29 29° SW 18:36:59 10° SSE visible
01 Mar - 09:01:56 10° SSW 09:21:47 36° SE 09:37:08 10° E daylight
01 Mar - 11:25:04 10° SW 11:46:58 68° SSE 12:00:00 10° ENE daylight
01 Mar - 13:53:18 10° W 14:11:12 90° N 14:20:27 10° E daylight
01 Mar - 16:21:28 10° W 16:33:28 73° SSW 16:39:53 10° ESE daylight
01 Mar - 18:47:55 10° W 18:52:56 19° SW 18:56:43 10° S visible
02 Mar - 07:06:35 10° SSE 07:18:11 16° SE 07:29:09 10° ESE daylight
02 Mar - 09:21:47 10° SSW 09:43:06 45° SE 09:58:56 10° E daylight
02 Mar - 11:46:28 10° WSW 12:08:23 76° SSE 12:21:05 10° E daylight
02 Mar - 14:15:17 10° W 14:32:32 89° N 14:41:25 10° E daylight
02 Mar - 16:43:10 10° WNW 16:54:23 60° SSW 17:00:34 10° SE daylight
02 Mar - 19:11:10 10° WSW 19:13:18 12° SW 19:15:12 10° SSW visible
03 Mar - 07:23:36 10° S 07:39:19 23° SE 07:53:47 10° E daylight
03 Mar - 09:42:07 10° SW 10:04:26 54° SSE 10:20:27 10° E daylight
03 Mar - 12:08:06 10° WSW 12:29:51 83° SSE 12:42:08 10° E daylight
03 Mar - 14:37:15 10° W 14:53:51 89° S 15:02:22 10° E daylight
03 Mar - 17:04:52 10° W 17:15:08 46° SSW 17:21:02 10° SE daylight
04 Mar - 07:42:07 10° S 08:00:25 31° SE 08:16:52 10° E daylight
04 Mar - 10:02:50 10° SW 10:25:49 63° SSE 10:41:47 10° ENE daylight
04 Mar - 12:29:57 10° WSW 12:51:20 88° S 13:03:11 10° E daylight
04 Mar - 14:59:10 10° W 15:15:05 83° SSW 15:23:16 10° ESE daylight
04 Mar - 17:26:43 10° W 17:35:43 34° SW 17:41:15 10° SSE daylight
05 Mar - 05:55:33 10° SE 05:57:20 10° SE 05:59:08 10° SE visible
05 Mar - 08:01:28 10° SSW 08:21:33 39° SE 08:39:11 10° E daylight
05 Mar - 10:23:54 10° SW 10:47:17 71° SSE 11:03:00 10° ENE daylight
05 Mar - 12:51:55 10° W 13:12:50 90° N 13:24:14 10° E daylight
05 Mar - 15:21:02 10° WNW 15:36:12 74° SSW 15:44:05 10° ESE daylight
05 Mar - 17:48:51 10° W 17:56:07 23° SW 18:01:03 10° S daylight
06 Mar - 06:06:37 10° SSE 06:18:17 17° SE 06:30:10 10° E daylight
06 Mar - 08:21:21 10° SSW 08:42:44 47° SE 09:01:03 10° ENE daylight
06 Mar - 10:45:15 10° WSW 11:08:48 78° SSE 11:24:10 10° E daylight
06 Mar - 13:13:57 10° W 13:34:19 89° N 13:45:16 10° E daylight
06 Mar - 15:42:51 10° WNW 15:57:11 62° SSW 16:04:45 10° SE daylight
06 Mar - 18:11:44 10° W 18:16:24 15° SW 18:20:03 10° SSW visible
